Weather History for Mountain Home, ID

Change the Weather History Date:

Saturday, June 22, 2013

  Actual Average Record
Temperature  
Mean Temperature 59 °F 69 °F  
Max Temperature 76 °F 85 °F 105 °F (1988)
Min Temperature 41 °F 52 °F 32 °F (1916)
Degree Days  
Heating Degree Days 6 2  
Month to date heating degree days 51 66  
Cooling Degree Days 0 6  
Month to date cooling degree days 79 82  
Growing Degree Days 9 (Base 50)    
Moisture  
Dew Point 37 °F    
Average Humidity 49    
Maximum Humidity 83    
Minimum Humidity 21    
Precipitation  
Precipitation 0.00 in 0.02 in 0.63 in (1923)
Month to date precipitation 0.01 0.51  
Sea Level Pressure  
Sea Level Pressure 30.02 in    
Wind  
Wind Speed 7 mph (NW)    
Max Wind Speed 13 mph    
Max Gust Speed 18 mph    
Visibility 10 miles    
Events      
T = Trace of Precipitation, MM = Missing Value Source: NWS Daily Summary

Daily Weather History Graph

Daily Weather History Graph

Search for Another Location

Airport:

Trip Planner

Search our weather history database for the weather conditions in past years. The results will help you decide how hot, cold, wet, or windy it might be!

Date:

Astronomy

Jun. 22, 2013 Rise Set
Actual Time 6:04 AM MDT 9:26 PM MDT
Civil Twilight 5:29 AM MDT 10:02 PM MDT
Nautical Twilight 4:43 AM MDT 10:48 PM MDT
Astronomical Twilight 3:45 AM MDT 11:45 PM MDT
Moon 8:44 PM MDT (6/22) 5:23 AM MDT (6/22)
Length of Visible Light 16h 32m
Length of Day
15h 22m
Waxing Gibbous, 99% of the Moon is Illuminated
Jun 22
Waxing Gibbous
Jun 23
Full
Jun 29
Last Quarter
Jul 8
New
Jul 15
First Quarter

Hourly Weather History & Observations

Time (MDT) Temp. Windchill Dew Point Humidity Pressure Visibility Wind Dir Wind Speed Gust Speed Precip Events Conditions
12:58 AM 50.5 °F - 38.3 °F 63% 30.04 in 10.0 mi WNW 6.9 mph - N/A   Scattered Clouds
1:58 AM 49.1 °F - 37.2 °F 64% 30.04 in 10.0 mi NW 5.8 mph - N/A   Clear
2:58 AM 45.0 °F 41.8 °F 36.7 °F 73% 30.05 in 10.0 mi West 5.8 mph - N/A   Clear
3:58 AM 46.8 °F - 38.1 °F 72% 30.05 in 10.0 mi NNW 4.6 mph - N/A   Clear
4:58 AM 44.8 °F 41.6 °F 37.8 °F 76% 30.06 in 10.0 mi WNW 5.8 mph - N/A   Clear
5:58 AM 43.0 °F 38.8 °F 38.1 °F 83% 30.08 in 10.0 mi WNW 6.9 mph - N/A   Clear
6:58 AM 47.1 °F - 40.3 °F 77% 30.08 in 10.0 mi NW 5.8 mph - N/A   Clear
7:58 AM 50.2 °F - 40.5 °F 69% 30.09 in 10.0 mi WNW 9.2 mph - N/A   Clear
8:58 AM 56.5 °F - 40.8 °F 56% 30.09 in 10.0 mi WNW 12.7 mph - N/A   Clear
9:58 AM 60.1 °F - 41.0 °F 49% 30.07 in 10.0 mi WNW 11.5 mph - N/A   Clear
10:58 AM 63.3 °F - 39.0 °F 41% 30.06 in 10.0 mi NW 11.5 mph 17.3 mph N/A   Clear
11:55 AM 65.8 °F - 37.4 °F 35% 30.06 in 10.0 mi WNW 12.7 mph - N/A   Clear
12:55 PM 67.3 °F - 36.5 °F 32% 30.04 in 10.0 mi Variable 6.9 mph - N/A   Clear
1:58 PM 68.7 °F - 35.4 °F 29% 30.04 in 10.0 mi West 10.4 mph - N/A   Clear
4:56 PM 75.2 °F - 35.6 °F 24% 29.99 in 10.0 mi NNW 6.9 mph 18.4 mph N/A   Clear
5:56 PM 75.2 °F - 35.6 °F 24% 29.97 in 10.0 mi West 5.8 mph 18.4 mph N/A   Clear
8:58 PM 72.1 °F - 29.5 °F 21% 29.91 in 10.0 mi NNW 11.5 mph - N/A   Clear
9:58 PM 70.3 °F - 30.2 °F 23% 29.90 in 10.0 mi NNW 8.1 mph - N/A   Clear
10:58 PM 62.4 °F - 31.5 °F 31% 29.92 in 10.0 mi NW 8.1 mph - N/A   Clear
11:58 PM 60.3 °F - 32.7 °F 35% 29.95 in 10.0 mi NNW 2.3 mph - N/A   Clear